Lakeland Region, FL

3:43 AM EDT on April 22, 2018 (GMT -0400)
Lakeland Linder Regional

Weather History for KLAL - September, 2012

Change the Weather History Date:

Wednesday, September 19, 2012

  Actual Average Record
Temperature  
Mean Temperature 79 °F -  
Max Temperature 87 °F 86 °F 93 °F (2010)
Min Temperature 71 °F 72 °F 60 °F (2007)
Cooling Degree Days 14    
Growing Degree Days 29 (Base 50)    
Moisture  
Dew Point 72 °F    
Average Humidity 87    
Maximum Humidity 100    
Minimum Humidity 58    
Precipitation  
Precipitation 0.00 in - - ()
Sea Level Pressure  
Sea Level Pressure 29.98 in    
Wind  
Wind Speed 4 mph (WSW)    
Max Wind Speed 10 mph    
Max Gust Speed -    
Visibility 11 miles    
Events Rain    
Averages and records for this station are not official NWS values.
T = Trace of Precipitation, MM = Missing Value Source: NWS Daily Summary

Daily Weather History Graph

Daily Weather History Graph

Search for Another Location

Airport or City:

Astronomy

Sep. 19, 2012 Rise Set
Actual Time 7:15 AM EDT 7:27 PM EDT
Civil Twilight 6:51 AM EDT 7:50 PM EDT
Nautical Twilight 6:24 AM EDT 8:18 PM EDT
Astronomical Twilight 5:56 AM EDT 8:45 PM EDT
Moon 10:58 AM EDT (9/19) 10:03 PM EDT (9/19)
Length of Visible Light 12h 59m
Length of Day
12h 12m
Waxing Crescent, 17% of the Moon is Illuminated
Sep 19
Waxing Crescent
Sep 22
First Quarter
Sep 29
Full
Oct 8
Last Quarter
Oct 15
New

Hourly Weather History & Observations

Time (EDT) Temp. Heat Index Dew Point Humidity Pressure Visibility Wind Dir Wind Speed Gust Speed Precip Events Conditions
12:15 AM 73.4 °F - 71.6 °F 94% 29.93 in 10.0 mi North - - N/A   Clear
12:35 AM 73.4 °F - 71.6 °F 94% 29.94 in 10.0 mi North - - N/A   Clear
12:55 AM 73.4 °F - 71.6 °F 94% 29.94 in 10.0 mi North - - N/A   Clear
1:15 AM 73.4 °F - 71.6 °F 94% 29.95 in 10.0 mi North - - N/A   Scattered Clouds
1:55 AM 73.4 °F - 71.6 °F 94% 29.96 in 10.0 mi North - - N/A   Mostly Cloudy
2:15 AM 73.4 °F - 73.4 °F 100% 29.96 in 10.0 mi North - - N/A   Light Drizzle
2:35 AM 73.4 °F - 71.6 °F 94% 29.95 in 10.0 mi North - - N/A   Light Drizzle
2:55 AM 73.4 °F - 71.6 °F 94% 29.94 in 10.0 mi North - - N/A   Scattered Clouds
3:15 AM 73.4 °F - 73.4 °F 100% 29.95 in 10.0 mi North - - N/A   Scattered Clouds
3:35 AM 73.4 °F - 71.6 °F 94% 29.94 in 10.0 mi North - - N/A   Mostly Cloudy
3:55 AM 73.4 °F - 71.6 °F 94% 29.94 in 10.0 mi North - - N/A   Mostly Cloudy
4:15 AM 73.4 °F - 71.6 °F 94% 29.93 in 10.0 mi North - - N/A   Scattered Clouds
4:35 AM 73.4 °F - 71.6 °F 94% 29.94 in 10.0 mi North - - N/A   Clear
4:55 AM 73.4 °F - 71.6 °F 94% 29.94 in 10.0 mi North - - N/A   Clear
5:15 AM 71.6 °F - 71.6 °F 100% 29.95 in 10.0 mi North - - N/A   Clear
5:50 AM 73.4 °F - 71.6 °F 94% 29.94 in 7.0 mi Calm Calm - N/A   Mostly Cloudy
5:55 AM 71.6 °F - 71.6 °F 100% 29.95 in 10.0 mi North - - N/A   Clear
6:15 AM 71.6 °F - 71.6 °F 100% 29.95 in 10.0 mi North - - N/A   Clear
6:35 AM 71.6 °F - 71.6 °F 100% 29.96 in 10.0 mi North - - N/A   Clear
6:50 AM 73.4 °F - 71.6 °F 94% 29.97 in 7.0 mi South 5.8 mph - N/A   Scattered Clouds
7:50 AM 73.4 °F - 71.6 °F 94% 29.98 in 7.0 mi Calm Calm - N/A   Scattered Clouds
8:50 AM 75.2 °F - 73.4 °F 94% 29.99 in 10.0 mi Variable 3.5 mph - N/A   Scattered Clouds
9:51 AM 80.6 °F 86.2 °F 75.2 °F 84% 30.00 in 10.0 mi SSW 6.9 mph - N/A   Scattered Clouds
10:50 AM 82.4 °F 88.2 °F 73.4 °F 74% 30.01 in 15.0 mi SW 8.1 mph - N/A   Scattered Clouds
11:52 AM 86.0 °F 91.8 °F 71.6 °F 62% 30.01 in 15.0 mi SSW 9.2 mph - N/A   Mostly Cloudy
12:52 PM 87.8 °F 93.8 °F 71.6 °F 58% 30.00 in 15.0 mi WSW 9.2 mph - N/A   Mostly Cloudy
1:51 PM 86.0 °F 90.4 °F 69.8 °F 58% 29.99 in 20.0 mi WSW 9.2 mph - N/A   Mostly Cloudy
2:50 PM 84.2 °F 88.4 °F 69.8 °F 62% 30.00 in 15.0 mi NW 10.4 mph - N/A   Overcast
3:50 PM 82.4 °F 86.3 °F 69.8 °F 66% 29.98 in 15.0 mi West 5.8 mph - N/A   Mostly Cloudy
4:55 PM 84.2 °F 89.6 °F 71.6 °F 66% 29.97 in 15.0 mi WSW 8.1 mph - N/A   Mostly Cloudy
5:56 PM 82.4 °F 87.2 °F 71.6 °F 70% 29.98 in 10.0 mi WNW 10.4 mph - N/A Rain Light Rain
6:50 PM 80.6 °F 85.4 °F 73.4 °F 79% 29.99 in 15.0 mi Calm Calm - N/A   Mostly Cloudy
7:53 PM 80.6 °F 85.4 °F 73.4 °F 79% 30.00 in 15.0 mi Calm Calm - N/A   Mostly Cloudy
9:50 PM 78.8 °F - 73.4 °F 83% 30.04 in 12.0 mi Calm Calm - N/A   Mostly Cloudy
10:55 PM 77.0 °F - 73.4 °F 89% 30.06 in 10.0 mi North - - N/A   Scattered Clouds
11:15 PM 77.0 °F - 73.4 °F 89% 30.06 in 10.0 mi North - - N/A   Mostly Cloudy
11:35 PM 77.0 °F - 73.4 °F 89% 30.06 in 10.0 mi North - - N/A   Scattered Clouds
11:55 PM 77.0 °F - 73.4 °F 89% 30.06 in 10.0 mi North - - N/A   Clear